Date,TemperatureHighF,TemperatureAvgF,TemperatureLowF,DewpointHighF,DewpointAvgF,DewpointLowF,HumidityHigh,HumidityAvg,HumidityLow,PressureMaxIn,PressureMinIn,WindSpeedMaxMPH,WindSpeedAvgMPH,GustSpeedMaxMPH,PrecipitationSumIn
2012-1-1,68.0,61.3,47.0,64.0,48.1,29.0,95,66,34,0.00,40.00,16,8,25,0.00
2012-1-2,57.0,43.7,32.0,32.0,22.7,10.0,84,48,15,0.00,40.00,15,6,26,0.00
2012-1-3,52.0,36.3,26.0,25.0,14.0,1.0,85,46,12,0.00,40.00,8,3,14,0.00
2012-1-4,66.0,45.0,24.0,47.0,33.8,19.0,92,68,43,0.00,40.00,7,2,15,0.00
2012-1-5,71.0,51.2,40.0,56.0,43.1,39.0,98,80,32,0.00,40.00,9,2,17,0.00
2012-1-6,74.0,55.2,40.0,58.0,50.1,39.0,98,85,53,0.00,40.00,6,2,14,0.00
2012-1-7,77.0,59.5,50.0,61.0,55.3,49.0,99,88,49,0.00,40.00,6,3,19,0.02
2012-1-8,78.0,64.2,58.0,65.0,60.4,57.0,98,90,56,0.00,40.00,8,4,15,1.27
2012-1-9,71.0,64.3,59.0,65.0,61.1,58.0,99,90,68,0.00,40.00,9,4,18,1.09
2012-1-10,70.0,63.7,54.0,65.0,60.6,49.0,98,90,79,0.00,40.00,14,7,22,1.73
2012-1-11,57.0,48.9,43.0,49.0,44.0,42.0,98,84,70,0.00,40.00,10,5,20,0.03
2012-1-12,50.0,43.5,33.0,48.0,30.2,15.0,98,65,25,0.00,40.00,15,7,32,0.01
2012-1-13,49.0,35.3,26.0,25.0,17.8,11.0,86,54,22,0.00,40.00,7,3,16,0.01
2012-1-14,62.0,41.9,24.0,28.0,22.3,16.0,91,55,17,0.00,40.00,10,3,22,0.00
2012-1-15,67.0,47.7,29.0,39.0,30.8,28.0,95,59,24,0.00,40.00,9,3,15,0.00
2012-1-16,72.0,61.7,48.0,57.0,52.4,34.0,84,73,58,0.00,40.00,13,9,24,0.00
2012-1-17,66.0,62.7,53.0,65.0,60.2,42.0,98,92,67,0.00,40.00,13,6,27,2.87
2012-1-18,59.0,45.6,36.0,42.0,33.2,28.0,90,65,31,0.00,40.00,12,6,24,0.62
2012-1-19,64.0,50.1,34.0,57.0,44.3,32.0,96,82,60,0.00,40.00,9,4,15,0.00
2012-1-20,76.0,67.8,60.0,66.0,63.2,57.0,98,86,63,0.00,40.00,10,5,22,0.38
2012-1-21,80.0,69.1,62.0,66.0,63.2,59.0,93,83,55,0.00,40.00,9,5,18,0.07
2012-1-22,76.0,68.7,61.0,68.0,64.6,58.0,98,88,67,0.00,40.00,11,7,23,0.20
2012-1-23,72.0,65.9,52.0,68.0,52.6,35.0,95,66,30,0.00,40.00,8,5,22,1.30
2012-1-24,66.0,56.1,46.0,49.0,39.3,34.0,78,55,36,0.00,40.00,10,6,17,0.01
2012-1-25,78.0,67.5,58.0,67.0,60.8,48.0,96,80,59,0.00,40.00,19,12,32,0.65
2012-1-26,68.0,59.9,52.0,63.0,54.6,46.0,98,84,57,0.00,40.00,10,6,21,3.41
2012-1-27,65.0,51.2,41.0,47.0,40.4,25.0,97,73,27,0.00,40.00,10,3,21,0.01
2012-1-28,63.0,49.2,39.0,47.0,35.4,24.0,97,64,33,0.00,40.00,13,6,23,0.00
2012-1-29,63.0,45.3,33.0,29.0,22.5,11.0,77,47,13,0.00,40.00,9,4,13,0.00
2012-1-30,66.0,48.2,32.0,44.0,34.0,28.0,91,64,26,0.00,40.00,10,3,15,0.00
2012-1-31,73.0,61.9,51.0,63.0,54.0,44.0,92,76,52,0.00,40.00,12,7,20,0.00
2012-2-1,66.0,62.9,59.0,64.0,61.5,58.0,98,96,89,0.00,40.00,11,4,20,1.72
2012-2-2,70.0,63.3,60.0,64.0,61.6,59.0,99,94,81,0.00,40.00,9,4,14,0.01
2012-2-3,70.0,65.2,62.0,64.0,61.9,61.0,96,89,73,0.00,40.00,12,8,21,0.12
2012-2-4,71.0,65.0,57.0,66.0,62.7,56.0,98,92,81,0.00,40.00,10,5,31,0.58
2012-2-5,60.0,54.5,48.0,60.0,50.0,41.0,99,85,74,0.00,40.00,11,8,19,0.07
2012-2-6,62.0,50.1,41.0,43.0,40.4,39.0,93,71,44,0.00,40.00,9,5,17,0.00
2012-2-7,69.0,53.1,42.0,46.0,41.7,39.0,90,68,34,0.00,40.00,7,5,14,0.00
2012-2-8,63.0,52.9,45.0,43.0,38.0,35.0,78,59,37,0.00,40.00,11,8,21,0.00
2012-2-9,57.0,47.0,39.0,40.0,35.9,32.0,86,67,43,0.00,40.00,9,4,17,0.00
2012-2-10,54.0,47.2,43.0,48.0,43.9,36.0,97,89,71,0.00,40.00,6,1,9,0.32
2012-2-11,46.0,39.6,28.0,45.0,24.8,12.0,97,59,28,0.00,40.00,18,12,33,0.01
2012-2-12,48.0,34.3,25.0,20.0,12.7,5.0,64,45,18,0.00,40.00,10,5,19,0.00
2012-2-13,55.0,43.6,31.0,51.0,32.4,17.0,97,67,39,0.00,40.00,14,7,21,0.45
2012-2-14,68.0,55.7,47.0,54.0,48.6,46.0,98,80,45,0.00,40.00,7,2,14,0.44
2012-2-15,69.0,57.0,46.0,62.0,52.7,45.0,98,87,60,0.00,40.00,14,8,27,1.46
2012-2-16,67.0,62.5,55.0,63.0,58.0,50.0,98,86,67,0.00,40.00,9,5,17,1.99
2012-2-17,72.0,58.8,50.0,51.0,49.0,47.0,93,73,45,0.00,40.00,7,4,13,0.01
2012-2-18,57.0,54.4,53.0,55.0,52.1,48.0,97,92,73,0.00,40.00,14,7,27,2.74
2012-2-19,54.0,49.3,39.0,53.0,45.1,38.0,98,86,64,0.00,40.00,14,5,28,0.10
2012-2-20,64.0,49.4,34.0,45.0,36.7,32.0,97,67,32,0.00,40.00,9,4,20,0.01
2012-2-21,74.0,59.6,46.0,56.0,50.7,45.0,97,75,46,0.00,40.00,6,3,15,0.00
2012-2-22,75.0,64.5,56.0,64.0,59.5,55.0,98,86,60,0.00,40.00,11,5,23,0.00
2012-2-23,80.0,70.0,61.0,66.0,62.9,60.0,98,80,58,0.00,40.00,16,8,37,0.00
2012-2-24,71.0,59.2,41.0,68.0,38.6,13.0,92,53,19,0.00,40.00,19,8,38,0.00
2012-2-25,59.0,48.5,39.0,41.0,27.0,14.0,81,48,18,0.00,40.00,10,3,17,0.00
2012-2-26,60.0,51.8,39.0,49.0,40.6,33.0,89,68,44,0.00,40.00,11,5,18,0.00
2012-2-27,65.0,57.5,52.0,57.0,51.8,47.0,90,81,71,0.00,40.00,12,6,22,0.00
2012-2-28,75.0,65.6,59.0,68.0,63.0,57.0,98,92,73,0.00,40.00,12,6,18,0.26
2012-2-29,79.0,72.0,67.0,67.0,65.0,62.0,96,80,58,0.00,40.00,10,6,20,0.01
2012-3-1,80.0,71.2,67.0,69.0,65.2,62.0,98,83,58,0.00,40.00,11,5,19,0.03
2012-3-2,81.0,73.5,68.0,68.0,65.6,61.0,93,78,51,0.00,40.00,11,7,23,0.31
2012-3-3,70.0,51.5,39.0,68.0,40.8,25.0,93,69,34,0.00,40.00,14,8,37,2.52
2012-3-4,67.0,50.9,34.0,39.0,30.2,20.0,94,54,18,0.00,40.00,13,4,25,0.01
2012-3-5,77.0,59.5,45.0,44.0,38.5,29.0,89,51,18,0.00,40.00,8,3,16,0.00
2012-3-6,73.0,59.9,48.0,54.0,40.0,31.0,86,50,29,0.00,40.00,14,9,23,0.00
2012-3-7,78.0,65.6,56.0,62.0,58.0,54.0,96,78,50,0.00,40.00,18,12,27,0.00
2012-3-8,79.0,70.2,65.0,68.0,64.9,62.0,95,84,57,0.00,40.00,16,10,29,0.10
2012-3-9,69.0,57.5,51.0,68.0,54.0,40.0,97,88,66,0.00,40.00,11,6,26,1.49
2012-3-10,70.0,57.6,48.0,53.0,37.7,-99.9,82,53,26,0.00,40.00,9,6,19,0.01
2012-3-11,74.0,65.8,57.0,64.0,59.5,53.0,94,81,65,0.00,40.00,21,12,32,0.00
2012-3-12,68.0,64.7,60.0,65.0,62.6,59.0,97,93,85,0.00,40.00,18,7,31,0.62
2012-3-13,81.0,68.1,59.0,68.0,63.2,58.0,98,87,57,0.00,40.00,6,2,13,0.01
2012-3-14,85.0,72.0,66.0,67.0,63.5,58.0,97,78,45,0.00,40.00,8,3,17,0.01
2012-3-15,83.0,71.3,64.0,66.0,61.7,53.0,98,76,38,0.00,40.00,9,3,17,0.00
2012-3-16,83.0,70.1,58.0,68.0,60.4,55.0,98,76,40,0.00,40.00,8,3,16,0.00
2012-3-17,81.0,70.6,61.0,66.0,61.6,55.0,98,77,42,0.00,40.00,11,4,17,0.00
2012-3-18,84.0,71.9,62.0,67.0,63.8,59.0,97,78,43,0.00,40.00,13,7,26,0.00
2012-3-19,78.0,70.9,66.0,66.0,63.6,60.0,95,79,55,0.00,40.00,17,11,29,0.00
2012-3-20,78.0,70.9,66.0,66.0,62.8,-99.9,94,79,59,0.00,40.00,21,16,35,0.02
2012-3-21,71.0,68.2,59.0,67.0,64.9,58.0,96,89,82,0.00,40.00,18,12,26,1.33
2012-3-22,-200.0,0.0,200.0,-99.9,-99.9,-99.9,0,0,100,0.00,40.00,3,3,0,0.00
2012-3-23,82.0,67.4,57.0,65.0,40.7,-99.9,95,50,25,0.00,40.00,6,3,13,0.01
2012-3-24,78.0,64.1,51.0,54.0,49.3,43.0,97,64,29,0.00,40.00,11,4,24,0.00
2012-3-25,81.0,64.7,48.0,55.0,50.2,47.0,97,65,32,0.00,40.00,11,4,19,0.00
2012-3-26,83.0,67.8,56.0,60.0,55.8,53.0,95,70,36,0.00,40.00,6,2,12,0.00
2012-3-27,86.0,69.2,55.0,60.0,56.9,54.0,97,70,35,0.00,40.00,9,3,15,0.00
2012-3-28,82.0,68.4,56.0,66.0,59.8,55.0,98,78,41,0.00,40.00,9,3,17,0.00
2012-3-29,82.0,69.6,62.0,65.0,62.0,59.0,98,80,45,0.00,40.00,8,3,14,0.00
2012-3-30,80.0,69.7,63.0,68.0,64.5,61.0,98,85,59,0.00,40.00,9,2,18,0.23
2012-3-31,84.0,71.4,62.0,67.0,63.6,60.0,98,79,44,0.00,40.00,7,2,12,0.01
2012-4-1,84.0,72.2,62.0,68.0,65.1,61.0,98,81,51,0.00,40.00,8,3,15,0.00
2012-4-2,86.0,70.8,63.0,71.0,66.3,61.0,96,88,52,0.00,40.00,10,6,26,0.28
2012-4-3,85.0,70.7,60.0,65.0,62.0,59.0,97,77,43,0.00,40.00,12,6,34,0.55
2012-4-4,78.0,67.6,62.0,68.0,61.8,58.0,97,83,59,0.00,40.00,14,6,25,1.33
2012-4-5,80.0,68.7,62.0,68.0,61.2,53.0,98,79,47,0.00,40.00,11,4,21,0.03
2012-4-6,78.0,62.8,51.0,56.0,53.0,50.0,96,73,44,0.00,40.00,9,4,17,0.01
2012-4-7,81.0,64.4,50.0,60.0,53.5,48.0,94,71,39,0.00,40.00,8,3,15,0.00
2012-4-8,81.0,67.1,54.0,63.0,55.6,47.0,97,72,31,0.00,40.00,7,2,13,0.00
2012-4-9,80.0,68.5,58.0,60.0,56.6,54.0,89,69,43,0.00,40.00,7,4,15,0.00
2012-4-10,80.0,67.8,55.0,65.0,58.3,54.0,97,75,45,0.00,40.00,6,2,13,0.00
2012-4-11,78.0,68.0,59.0,65.0,58.6,50.0,97,75,47,0.00,40.00,9,4,18,0.00
2012-4-12,74.0,62.9,52.0,57.0,48.7,42.0,94,62,40,0.00,40.00,10,4,19,0.00
2012-4-13,81.0,68.2,54.0,61.0,57.5,53.0,97,72,49,0.00,40.00,9,5,17,0.00
2012-4-14,82.0,69.1,58.0,65.0,57.6,-99.9,96,72,46,0.00,40.00,16,9,27,0.00
2012-4-15,83.0,73.8,67.0,68.0,65.9,63.0,94,78,52,0.00,40.00,18,11,33,0.00
2012-4-16,75.0,69.6,67.0,71.0,67.1,62.0,97,92,76,0.00,40.00,11,4,19,0.22
2012-4-17,69.0,63.4,55.0,68.0,60.6,52.0,97,91,75,0.00,40.00,17,8,33,1.26
2012-4-18,76.0,63.1,53.0,54.0,52.0,51.0,95,71,41,0.00,40.00,11,7,22,0.03
2012-4-19,81.0,65.7,50.0,58.0,51.8,49.0,95,66,34,0.00,40.00,6,2,12,0.00
2012-4-20,79.0,64.9,52.0,62.0,56.2,51.0,97,77,41,0.00,40.00,6,1,13,0.00
2012-4-21,63.0,59.6,50.0,60.0,54.7,47.0,95,84,73,0.00,40.00,13,9,25,0.00
2012-4-22,76.0,61.3,48.0,52.0,45.8,38.0,92,62,32,0.00,40.00,18,8,33,0.00
2012-4-23,66.0,56.4,44.0,43.0,38.5,32.0,90,55,28,0.00,40.00,14,8,28,0.00
2012-4-24,77.0,57.9,39.0,50.0,42.5,38.0,95,63,31,0.00,40.00,6,2,16,0.00
2012-4-25,84.0,68.2,49.0,61.0,54.9,48.0,95,66,40,0.00,40.00,9,5,17,0.00
2012-4-26,84.0,72.9,65.0,65.0,63.1,61.0,92,74,47,0.00,40.00,9,6,17,0.00
2012-4-27,83.0,71.5,62.0,66.0,61.9,60.0,97,75,48,0.00,40.00,10,5,21,0.00
2012-4-28,82.0,70.5,61.0,67.0,60.1,-99.9,97,75,49,0.00,40.00,13,6,21,0.00
2012-4-29,86.0,71.9,60.0,68.0,64.2,59.0,98,79,48,0.00,40.00,8,3,15,0.00
2012-4-30,88.0,75.4,67.0,70.0,65.4,61.0,98,75,43,0.00,40.00,6,2,15,0.00
2012-5-1,87.0,73.9,59.0,69.0,63.1,58.0,97,72,43,0.00,40.00,12,4,21,0.00
2012-5-2,82.0,71.1,67.0,72.0,68.1,63.0,97,91,73,0.00,40.00,16,7,24,0.35
2012-5-3,90.0,77.9,67.0,70.0,67.2,62.0,97,73,41,0.00,40.00,9,4,16,0.01
2012-5-4,90.0,77.8,70.0,72.0,69.6,68.0,97,79,49,0.00,40.00,8,2,12,0.00
2012-5-5,90.0,77.5,68.0,72.0,66.0,-99.9,97,74,45,0.00,40.00,13,3,23,0.08
2012-5-6,88.0,74.6,64.0,72.0,67.2,63.0,98,80,48,0.00,40.00,8,2,18,0.09
2012-5-7,89.0,72.6,65.0,71.0,66.5,64.0,96,83,49,0.00,40.00,13,3,37,1.06
2012-5-8,88.0,73.2,64.0,68.0,64.9,63.0,97,79,46,0.00,40.00,7,2,14,0.12
2012-5-9,80.0,70.8,60.0,68.0,63.5,57.0,96,80,50,0.00,40.00,9,5,19,0.02
2012-5-10,81.0,68.1,55.0,58.0,52.3,44.0,96,64,29,0.00,40.00,6,2,16,0.00
2012-5-11,71.0,64.3,56.0,63.0,58.0,54.0,96,81,60,0.00,40.00,8,4,13,0.07
2012-5-12,82.0,70.2,63.0,71.0,63.2,-99.9,93,82,67,0.00,40.00,10,4,21,0.05
2012-5-13,76.0,69.1,64.0,67.0,64.1,62.0,96,85,63,0.00,40.00,8,3,14,0.07
2012-5-14,81.0,69.7,59.0,64.0,60.1,56.0,97,75,44,0.00,40.00,9,3,17,0.00
2012-5-15,83.0,70.8,57.0,62.0,58.2,55.0,96,69,38,0.00,40.00,6,2,12,0.00
2012-5-16,85.0,73.4,64.0,63.0,60.1,53.0,91,67,34,0.00,40.00,8,3,16,0.00
2012-5-17,87.0,72.6,57.0,65.0,58.9,54.0,97,68,33,0.00,40.00,7,2,15,0.00
2012-5-18,88.0,73.9,59.0,63.0,58.4,53.0,96,65,31,0.00,40.00,7,2,15,0.00
2012-5-19,88.0,73.6,60.0,66.0,58.9,-99.9,96,67,36,0.00,40.00,8,3,15,0.00
2012-5-20,88.0,74.6,62.0,70.0,60.9,56.0,97,67,36,0.00,40.00,7,2,15,0.00
2012-5-21,89.0,74.0,58.0,64.0,60.4,57.0,95,67,35,0.00,40.00,8,3,16,0.00
2012-5-22,87.0,76.0,64.0,65.0,61.3,57.0,94,65,38,0.00,40.00,8,3,16,0.00
2012-5-23,91.0,74.7,60.0,70.0,61.0,56.0,93,66,37,0.00,40.00,10,3,19,0.14
2012-5-24,90.0,77.2,65.0,71.0,64.8,61.0,97,70,38,0.00,40.00,13,6,25,0.14
2012-5-25,90.0,77.2,64.0,71.0,66.3,62.0,97,73,40,0.00,40.00,10,4,17,0.00
2012-5-26,94.0,78.8,64.0,71.0,63.9,57.0,97,67,30,0.00,40.00,9,2,17,0.00
2012-5-27,95.0,81.2,67.0,72.0,67.2,65.0,94,67,37,0.00,40.00,7,2,14,0.00
2012-5-28,94.0,80.8,70.0,73.0,69.6,64.0,96,73,40,0.00,40.00,13,3,22,0.20
2012-5-29,94.0,81.2,69.0,74.0,66.4,60.0,96,66,33,0.00,40.00,8,4,14,0.20
2012-5-30,93.0,78.6,67.0,73.0,68.0,65.0,97,74,42,0.00,40.00,11,4,20,0.01
2012-5-31,92.0,72.7,65.0,72.0,66.5,64.0,97,83,43,0.00,40.00,11,3,35,1.00
2012-6-1,83.0,72.2,65.0,68.0,60.4,51.0,97,71,34,0.00,40.00,11,5,18,0.01
2012-6-2,90.0,72.0,54.0,61.0,51.8,-99.9,96,58,22,0.00,40.00,6,1,12,0.00
2012-6-3,94.0,77.5,61.0,73.0,65.0,60.0,96,69,36,0.00,40.00,7,2,15,0.00
2012-6-4,93.0,79.3,67.0,72.0,67.8,64.0,97,72,39,0.00,40.00,7,3,15,0.00
2012-6-5,93.0,82.0,74.0,73.0,69.5,64.0,95,70,40,0.00,40.00,8,4,17,0.00
2012-6-6,91.0,80.1,70.0,72.0,67.6,62.0,93,68,44,0.00,40.00,9,5,18,0.00
2012-6-7,91.0,78.8,70.0,69.0,64.5,59.0,83,63,38,0.00,40.00,8,5,17,0.00
2012-6-8,87.0,77.2,70.0,72.0,68.6,64.0,93,77,50,0.00,40.00,10,4,24,0.00
2012-6-9,82.0,75.5,71.0,74.0,68.5,-99.9,91,84,70,0.00,40.00,13,6,21,0.05
2012-6-10,83.0,74.6,72.0,74.0,71.4,69.0,96,90,70,0.00,40.00,9,5,17,0.52
2012-6-11,92.0,82.4,73.0,76.0,74.3,72.0,96,78,54,0.00,40.00,8,4,17,0.02
2012-6-12,81.0,72.3,67.0,75.0,66.7,65.0,95,83,60,0.00,40.00,16,5,35,0.24
2012-6-13,88.0,76.8,66.0,69.0,66.6,63.0,97,74,44,0.00,40.00,8,3,17,0.06
2012-6-14,88.0,74.9,68.0,71.0,68.2,65.0,96,82,50,0.00,40.00,10,2,28,0.02
2012-6-15,87.0,76.7,68.0,72.0,68.0,65.0,96,77,48,0.00,40.00,10,3,18,0.02
2012-6-16,88.0,73.4,66.0,71.0,63.0,-99.9,96,77,42,0.00,40.00,10,4,20,0.01
2012-6-17,87.0,76.1,62.0,69.0,64.4,61.0,95,70,45,0.00,40.00,12,6,20,0.00
2012-6-18,88.0,78.6,70.0,72.0,66.7,61.0,95,70,41,0.00,40.00,16,10,25,0.00
2012-6-19,90.0,79.0,69.0,72.0,66.2,63.0,94,68,43,0.00,40.00,14,8,22,0.00
2012-6-20,92.0,84.6,74.0,69.0,62.4,56.0,75,50,32,0.00,40.00,14,8,24,0.00
2012-6-21,91.0,78.3,67.0,68.0,62.2,54.0,94,63,32,0.00,40.00,10,4,18,0.00
2012-6-22,95.0,81.0,65.0,70.0,62.4,60.0,87,57,32,0.00,40.00,9,4,21,0.00
2012-6-23,97.0,84.3,71.0,74.0,67.2,62.0,95,62,33,0.00,40.00,12,4,21,0.00
2012-6-24,98.0,84.4,71.0,74.0,69.6,63.0,96,66,32,0.00,40.00,11,4,23,0.00
2012-6-25,100.0,87.6,73.0,70.0,63.7,58.0,72,48,26,0.00,40.00,14,7,29,0.00
2012-6-26,100.0,88.5,78.0,67.0,61.7,55.0,65,44,23,0.00,40.00,12,7,22,0.00
2012-6-27,102.0,86.5,67.0,75.0,60.3,50.0,80,47,18,0.00,40.00,12,4,18,0.00
2012-6-28,100.0,86.4,75.0,77.0,70.6,62.0,97,65,29,0.00,40.00,7,3,13,0.00
2012-6-29,102.0,87.5,75.0,75.0,68.7,61.0,92,59,28,0.00,40.00,7,3,15,0.00
2012-6-30,98.0,87.1,75.0,73.0,65.5,58.0,94,54,27,0.00,40.00,10,4,17,0.00
2012-7-1,99.0,82.5,71.0,74.0,68.5,61.0,94,68,30,0.00,40.00,10,3,21,0.07
2012-7-2,94.0,80.0,70.0,75.0,70.0,63.0,95,76,36,0.00,40.00,9,2,25,0.20
2012-7-3,98.0,79.3,70.0,72.0,68.9,61.0,96,77,30,0.00,40.00,11,2,38,1.02
2012-7-4,97.0,78.0,70.0,74.0,70.5,67.0,96,81,38,0.00,40.00,9,2,25,0.07
2012-7-5,97.0,79.7,69.0,74.0,70.0,67.0,97,76,38,0.00,40.00,7,2,22,0.05
2012-7-6,92.0,78.4,71.0,74.0,71.5,69.0,95,81,47,0.00,40.00,9,2,19,0.35
2012-7-7,91.0,78.3,70.0,75.0,71.5,69.0,97,82,49,0.00,40.00,5,1,27,0.08
2012-7-8,88.0,76.5,73.0,75.0,72.5,71.0,96,88,61,0.00,40.00,7,1,12,0.02
2012-7-9,89.0,77.9,71.0,74.0,71.1,68.0,96,81,50,0.00,40.00,8,2,20,0.17
2012-7-10,81.0,75.1,70.0,72.0,70.9,68.0,95,87,72,0.00,40.00,9,2,19,0.40
2012-7-11,80.0,74.7,70.0,75.0,71.6,68.0,96,91,79,0.00,40.00,10,1,24,0.65
2012-7-12,85.0,75.2,71.0,75.0,71.2,68.0,96,89,62,0.00,40.00,9,2,19,0.67
2012-7-13,85.0,74.2,70.0,73.0,70.3,68.0,96,89,60,0.00,40.00,7,2,29,1.32
2012-7-14,89.0,76.7,70.0,75.0,71.3,69.0,96,85,57,0.00,40.00,10,2,22,0.36
2012-7-15,86.0,77.3,72.0,75.0,73.0,71.0,96,87,64,0.00,40.00,8,3,14,0.14
2012-7-16,93.0,80.5,71.0,76.0,72.4,70.0,97,79,47,0.00,40.00,7,2,14,0.03
2012-7-17,95.0,82.5,71.0,75.0,71.4,67.0,96,73,42,0.00,40.00,5,1,11,0.01
2012-7-18,94.0,80.7,73.0,76.0,72.6,71.0,96,79,47,0.00,40.00,15,3,24,0.00
2012-7-19,89.0,75.4,71.0,75.0,71.2,70.0,96,88,58,0.00,40.00,18,2,31,2.19
2012-7-20,93.0,77.1,70.0,76.0,71.9,69.0,97,86,56,0.00,40.00,17,3,29,0.99
2012-7-21,81.0,73.8,69.0,74.0,71.1,68.0,96,91,74,0.00,40.00,10,2,15,0.50
2012-7-22,89.0,79.5,71.0,76.0,72.2,67.0,97,80,48,0.00,40.00,11,4,18,0.01
2012-7-23,92.0,77.1,72.0,77.0,65.4,-99.9,98,77,3,0.00,40.00,8,3,16,0.00
2012-7-24,94.0,82.4,71.0,77.0,73.4,71.0,100,78,48,0.00,40.00,5,2,11,0.00
2012-7-25,95.0,82.9,74.0,77.0,74.1,72.0,100,78,49,0.00,40.00,6,3,12,0.00
2012-7-26,93.0,79.9,74.0,77.0,74.1,71.0,100,85,52,0.00,40.00,8,3,25,0.08
2012-7-27,92.0,80.9,73.0,78.0,74.8,71.0,100,84,51,0.00,40.00,7,4,15,0.08
2012-7-28,90.0,80.5,75.0,77.0,75.9,73.0,99,87,65,0.00,40.00,9,4,15,0.43
2012-7-29,98.0,84.0,71.0,78.0,74.9,71.0,100,78,45,0.00,40.00,5,2,11,0.01
2012-7-30,98.0,86.1,76.0,80.0,76.6,75.0,98,76,49,0.00,40.00,7,3,12,0.00
2012-7-31,94.0,84.1,77.0,77.0,76.0,75.0,95,79,58,0.00,40.00,7,4,14,0.00
2012-8-1,96.0,83.8,75.0,78.0,76.1,74.0,96,80,54,0.00,40.00,6,3,13,0.00
2012-8-2,88.0,82.3,77.0,78.0,76.5,76.0,97,83,69,0.00,40.00,5,3,11,0.00
2012-8-3,95.0,83.4,74.0,78.0,75.4,73.0,98,80,51,0.00,40.00,9,4,15,0.00
2012-8-4,95.0,81.6,74.0,77.0,74.4,73.0,97,81,50,0.00,40.00,9,4,22,0.00
2012-8-5,90.0,79.7,73.0,78.0,74.7,72.0,97,86,62,0.00,40.00,9,3,20,0.19
2012-8-6,94.0,79.7,72.0,77.0,73.6,71.0,98,84,55,0.00,40.00,8,3,30,0.24
2012-8-7,93.0,81.7,71.0,76.0,73.0,70.0,98,78,52,0.00,40.00,6,3,11,0.24
2012-8-8,94.0,82.8,73.0,78.0,73.6,71.0,97,77,51,0.00,40.00,8,3,17,0.00
2012-8-9,92.0,77.6,71.0,76.0,72.3,69.0,97,86,54,0.00,40.00,8,4,58,0.84
2012-8-10,88.0,77.5,71.0,78.0,73.5,68.0,97,88,70,0.00,40.00,8,4,24,0.89
2012-8-11,91.0,79.4,73.0,75.0,70.6,-99.9,97,79,50,0.00,40.00,6,3,10,0.03
2012-8-12,93.0,80.7,69.0,74.0,70.6,67.0,96,74,45,0.00,40.00,6,3,15,0.00
2012-8-13,93.0,82.4,72.0,77.0,73.5,71.0,97,77,51,0.00,40.00,7,4,14,0.00
2012-8-14,95.0,84.4,77.0,77.0,74.5,71.0,95,75,48,0.00,40.00,8,5,18,0.00
2012-8-15,96.0,80.6,75.0,78.0,73.6,69.0,97,82,45,0.00,40.00,7,3,16,0.00
2012-8-16,95.0,81.5,73.0,78.0,73.8,70.0,96,80,50,0.00,40.00,10,3,18,0.13
2012-8-17,85.0,76.2,72.0,77.0,72.7,70.0,96,89,76,0.00,40.00,9,4,16,0.73
2012-8-18,83.0,73.6,69.0,74.0,70.9,68.0,97,92,72,0.00,40.00,9,3,15,0.86
2012-8-19,81.0,75.1,70.0,74.0,71.6,69.0,97,89,74,0.00,40.00,5,2,9,0.13
2012-8-20,88.0,76.3,71.0,72.0,70.5,69.0,97,84,56,0.00,40.00,8,4,15,0.01
2012-8-21,86.0,75.6,68.0,70.0,67.9,66.0,96,79,53,0.00,40.00,8,4,14,0.02
2012-8-22,89.0,76.9,68.0,67.0,62.8,57.0,90,66,35,0.00,40.00,9,4,13,0.01
2012-8-23,90.0,76.2,63.0,69.0,62.6,59.0,93,67,35,0.00,40.00,8,4,16,0.00
2012-8-24,86.0,74.4,68.0,74.0,70.8,67.0,97,89,64,0.00,40.00,15,4,23,0.38
2012-8-25,88.0,76.4,71.0,75.0,71.6,70.0,96,86,62,0.00,40.00,13,4,23,0.04
2012-8-26,91.0,79.2,69.0,74.0,70.2,67.0,97,77,46,0.00,40.00,7,3,13,0.01
2012-8-27,91.0,79.6,67.0,71.0,67.7,65.0,95,70,44,0.00,40.00,9,5,20,0.00
2012-8-28,86.0,78.8,75.0,74.0,70.8,66.0,92,77,66,0.00,40.00,14,10,27,0.10
2012-8-29,80.0,75.6,74.0,74.0,72.4,70.0,96,90,71,0.00,40.00,25,19,48,6.29
2012-8-30,81.0,76.1,74.0,75.0,73.1,71.0,96,91,77,0.00,40.00,28,18,44,9.26
2012-8-31,86.0,78.5,74.0,79.0,74.9,72.0,96,89,73,0.00,40.00,10,7,26,1.26
2012-9-1,89.0,79.1,73.0,77.0,74.3,72.0,96,87,60,0.00,40.00,7,4,21,0.08
2012-9-2,88.0,79.6,73.0,77.0,75.0,72.0,96,86,68,0.00,40.00,6,2,18,0.16
2012-9-3,93.0,82.5,75.0,78.0,75.8,73.0,96,82,59,0.00,40.00,7,4,14,0.11
2012-9-4,92.0,82.6,76.0,77.0,75.4,74.0,95,80,59,0.00,40.00,6,4,15,0.00
2012-9-5,95.0,83.5,76.0,79.0,75.3,73.0,93,78,56,0.00,40.00,8,4,15,0.00
2012-9-6,95.0,81.8,74.0,78.0,75.0,73.0,96,82,55,0.00,40.00,5,2,25,0.02
2012-9-7,92.0,80.3,72.0,76.0,73.8,71.0,97,82,57,0.00,40.00,6,2,11,0.02
2012-9-8,87.0,76.2,69.0,76.0,71.0,64.0,97,85,67,0.00,40.00,12,5,24,0.01
2012-9-9,82.0,70.1,60.0,64.0,57.3,53.0,91,67,38,0.00,40.00,9,5,16,0.00
2012-9-10,85.0,71.6,57.0,66.0,59.1,55.0,95,69,38,0.00,40.00,8,4,14,0.00
2012-9-11,86.0,72.4,60.0,65.0,61.1,59.0,96,72,41,0.00,40.00,9,4,17,0.00
2012-9-12,88.0,74.4,65.0,71.0,66.9,61.0,93,79,55,0.00,40.00,12,5,23,0.14
2012-9-13,88.0,76.1,69.0,71.0,69.1,67.0,96,81,54,0.00,40.00,8,5,17,0.27
2012-9-14,88.0,76.1,67.0,72.0,66.9,65.0,97,76,48,0.00,40.00,7,4,13,0.16
2012-9-15,89.0,75.8,65.0,71.0,65.6,63.0,94,74,45,0.00,40.00,8,4,13,0.01
2012-9-16,89.0,76.2,65.0,72.0,68.4,64.0,97,79,53,0.00,40.00,5,2,12,0.00
2012-9-17,76.0,72.5,70.0,72.0,70.8,69.0,96,94,85,0.00,40.00,7,4,12,1.42
2012-9-18,83.0,72.8,65.0,69.0,66.5,60.0,97,82,58,0.00,40.00,11,5,18,0.17
2012-9-19,78.0,65.7,57.0,60.0,54.0,51.0,91,69,42,0.00,40.00,7,5,14,0.01
2012-9-20,84.0,67.1,53.0,64.0,56.8,52.0,96,74,42,0.00,40.00,5,2,9,0.00
2012-9-21,88.0,71.7,58.0,68.0,62.0,57.0,97,76,40,0.00,40.00,5,2,11,0.00
2012-9-22,89.0,73.4,62.0,71.0,64.3,-99.9,98,80,48,0.00,40.00,6,3,11,0.00
2012-9-23,89.0,75.9,64.0,72.0,67.4,63.0,98,79,50,0.00,40.00,7,3,13,0.00
2012-9-24,87.0,74.6,64.0,71.0,65.3,59.0,94,75,52,0.00,40.00,6,3,10,0.00
2012-9-25,89.0,74.8,64.0,72.0,67.2,61.0,95,79,55,0.00,40.00,8,4,14,0.00
2012-9-26,88.0,72.9,60.0,69.0,64.2,59.0,97,78,44,0.00,40.00,8,3,12,0.00
2012-9-27,90.0,74.4,65.0,73.0,66.1,63.0,98,80,41,0.00,40.00,6,2,13,0.00
2012-9-28,86.0,74.5,68.0,76.0,70.0,67.0,99,88,58,0.00,40.00,16,3,27,0.11
2012-9-29,76.0,71.4,68.0,75.0,71.0,67.0,100,99,96,0.00,40.00,8,3,13,2.32
2012-9-30,79.0,72.5,67.0,76.0,71.6,66.0,100,97,87,0.00,40.00,9,3,20,1.07
2012-10-1,73.0,62.6,60.0,72.0,60.5,59.0,98,93,84,0.00,40.00,8,4,16,0.01
2012-10-2,78.0,65.7,56.0,61.0,57.5,51.0,99,79,41,0.00,40.00,7,2,11,0.00
2012-10-3,82.0,65.9,54.0,69.0,61.2,54.0,100,87,55,0.00,40.00,8,2,14,0.00
2012-10-4,85.0,70.6,61.0,68.0,63.9,61.0,100,83,45,0.00,40.00,5,2,10,0.01
2012-10-5,88.0,71.3,59.0,67.0,61.4,57.0,100,77,37,0.00,40.00,4,1,10,0.01
2012-10-6,78.0,66.4,56.0,66.0,61.8,54.0,100,86,64,0.00,40.00,10,4,19,0.00
2012-10-7,62.0,54.6,50.0,54.0,50.5,48.0,98,87,65,0.00,40.00,11,7,19,0.00
2012-10-8,67.0,55.4,47.0,52.0,48.0,45.0,94,78,52,0.00,40.00,9,5,17,0.00
2012-10-9,77.0,58.7,45.0,58.0,50.8,44.0,99,80,44,0.00,40.00,5,2,9,0.00
2012-10-10,83.0,68.1,53.0,67.0,61.6,53.0,100,82,55,0.00,40.00,5,2,11,0.00
2012-10-11,86.0,71.4,60.0,68.0,64.0,60.0,100,81,48,0.00,40.00,6,3,18,0.00
2012-10-12,84.0,69.7,58.0,68.0,62.7,58.0,100,82,47,0.00,40.00,7,2,12,0.00
2012-10-13,84.0,70.9,59.0,73.0,64.9,59.0,100,84,51,0.00,40.00,10,4,17,0.01
2012-10-14,87.0,75.5,69.0,72.0,70.4,68.0,100,86,55,0.00,40.00,9,4,16,0.01
2012-10-15,80.0,69.8,54.0,71.0,61.0,51.0,100,78,39,0.00,40.00,9,4,16,0.03
2012-10-16,76.0,62.7,51.0,61.0,53.8,48.0,98,77,37,0.00,40.00,10,4,16,0.03
2012-10-17,82.0,68.8,54.0,71.0,62.0,53.0,97,81,58,0.00,40.00,9,4,18,0.00
2012-10-18,78.0,68.3,50.0,72.0,54.9,40.0,100,69,26,0.00,40.00,9,3,17,0.79
2012-10-19,77.0,59.0,44.0,50.0,43.2,33.0,98,66,21,0.00,40.00,11,4,24,0.01
2012-10-20,83.0,59.9,42.0,58.0,46.0,39.0,99,70,23,0.00,40.00,4,1,12,0.00
2012-10-21,81.0,63.5,49.0,61.0,52.7,48.0,99,75,33,0.00,40.00,8,2,15,0.00
2012-10-22,83.0,65.1,50.0,62.0,56.4,50.0,99,78,41,0.00,40.00,8,3,24,0.00
2012-10-23,84.0,68.1,55.0,66.0,62.1,55.0,100,84,47,0.00,40.00,6,2,12,0.01
2012-10-24,85.0,70.5,62.0,69.0,64.6,62.0,100,85,50,0.00,40.00,7,2,13,0.01
2012-10-25,85.0,69.6,60.0,71.0,63.1,60.0,100,84,46,0.00,40.00,8,2,15,0.01
2012-10-26,80.0,66.4,50.0,73.0,61.7,47.0,100,86,61,0.00,40.00,12,6,22,0.01
2012-10-27,58.0,49.6,46.0,47.0,43.2,39.0,90,80,58,0.00,40.00,12,9,27,0.01
2012-10-28,62.0,49.3,39.0,40.0,37.0,34.0,88,65,36,0.00,40.00,12,8,24,0.00
2012-10-29,61.0,48.6,37.0,37.0,32.7,28.0,92,58,29,0.00,40.00,12,7,25,0.00
2012-10-30,67.0,49.6,34.0,44.0,35.7,30.0,97,65,28,0.00,40.00,9,4,20,0.00
2012-10-31,77.0,57.9,40.0,58.0,50.1,39.0,99,79,43,0.00,40.00,7,2,16,0.00
2012-11-1,79.0,61.1,48.0,57.0,50.1,45.0,100,74,31,0.00,40.00,5,2,12,0.00
2012-11-2,84.0,65.0,52.0,67.0,60.1,52.0,100,87,49,0.00,40.00,6,2,11,0.00
2012-11-3,84.0,66.9,55.0,70.0,60.6,55.0,100,85,42,0.00,40.00,6,2,13,0.01
2012-11-4,71.0,61.5,55.0,64.0,59.7,55.0,100,94,69,0.00,40.00,5,2,17,0.48
2012-11-5,65.0,56.5,50.0,59.0,54.3,49.0,100,93,62,0.00,40.00,8,3,13,0.16
2012-11-6,59.0,51.6,42.0,55.0,48.2,42.0,100,89,62,0.00,40.00,8,3,17,0.03
2012-11-7,67.0,52.3,40.0,48.0,39.8,34.0,100,68,30,0.00,40.00,10,5,20,0.01
2012-11-8,66.0,48.5,34.0,46.0,38.7,34.0,100,75,33,0.00,40.00,9,2,12,0.01
2012-11-9,74.0,54.5,38.0,53.0,46.9,38.0,100,80,44,0.00,40.00,8,3,15,0.00
2012-11-10,77.0,62.9,49.0,57.0,54.2,49.0,100,76,48,0.00,40.00,11,7,21,0.00
2012-11-11,79.0,67.5,57.0,64.0,59.6,57.0,100,78,50,0.00,40.00,16,11,28,0.00
2012-11-12,69.0,55.1,40.0,67.0,49.3,35.0,100,82,60,0.00,40.00,15,7,27,0.87
2012-11-13,59.0,44.8,35.0,38.0,31.1,26.0,91,63,30,0.00,40.00,12,6,24,0.01
2012-11-14,61.0,45.6,34.0,36.0,30.9,-99.9,92,63,27,0.00,40.00,9,5,17,0.00
2012-11-15,64.0,48.6,35.0,46.0,39.4,33.0,95,74,43,0.00,40.00,6,4,13,0.00
2012-11-16,66.0,51.2,41.0,43.0,38.6,35.0,96,66,32,0.00,40.00,8,5,15,0.00
2012-11-17,68.0,51.0,40.0,43.0,37.9,34.0,88,65,30,0.00,40.00,6,4,12,0.00
2012-11-18,67.0,50.2,38.0,44.0,39.2,37.0,98,72,33,0.00,40.00,10,4,15,0.00
2012-11-19,71.0,53.4,40.0,49.0,43.9,40.0,99,75,37,0.00,40.00,6,2,13,0.00
2012-11-20,71.0,56.1,46.0,49.0,45.2,39.0,98,72,33,0.00,40.00,8,2,18,0.00
2012-11-21,76.0,56.6,43.0,52.0,45.5,41.0,100,72,29,0.00,40.00,8,3,16,0.00
2012-11-22,76.0,56.2,42.0,53.0,46.3,42.0,100,76,32,0.00,40.00,5,2,10,0.00
2012-11-23,73.0,57.1,43.0,56.0,49.9,39.0,100,80,48,0.00,40.00,11,4,17,0.00
2012-11-24,57.0,45.2,32.0,43.0,33.1,27.0,96,66,32,0.00,40.00,9,5,16,0.00
2012-11-25,66.0,45.5,29.0,45.0,33.2,28.0,98,69,28,0.00,40.00,7,3,12,0.00
2012-11-26,56.0,48.2,45.0,55.0,47.8,44.0,100,99,93,0.00,40.00,7,2,11,0.00
2012-11-27,64.0,51.7,44.0,64.0,51.6,44.0,100,100,98,0.00,40.00,11,3,20,0.64
2012-11-28,61.0,45.9,36.0,44.0,36.8,29.0,100,76,30,0.00,40.00,8,3,13,0.01
2012-11-29,66.0,47.0,34.0,43.0,36.8,32.0,100,74,31,0.00,40.00,8,3,15,0.00
2012-11-30,72.0,53.2,40.0,53.0,47.0,40.0,100,84,44,0.00,40.00,8,2,13,0.00
2012-12-1,75.0,57.6,41.0,60.0,51.4,41.0,100,83,48,0.00,40.00,8,4,20,0.00
2012-12-2,78.0,63.1,55.0,65.0,58.5,55.0,100,88,49,0.00,40.00,9,4,14,0.01
2012-12-3,75.0,64.6,55.0,65.0,60.1,55.0,100,87,58,0.00,40.00,11,6,20,0.01
2012-12-4,69.0,65.6,62.0,69.0,65.6,62.0,100,100,99,0.00,40.00,8,2,11,0.20
2012-12-5,63.0,59.9,58.0,63.0,59.9,58.0,100,100,97,0.00,40.00,6,1,13,0.88
2012-12-6,70.0,61.9,60.0,64.0,57.3,-99.9,100,91,70,0.00,40.00,9,3,14,0.01
2012-12-7,74.0,64.5,58.0,64.0,61.7,58.0,100,92,61,0.00,40.00,7,2,13,0.00
2012-12-8,62.0,60.9,58.0,62.0,60.9,58.0,100,100,100,0.00,40.00,5,3,7,0.00
2012-12-9,78.0,65.4,56.0,69.0,63.2,56.0,100,94,70,0.00,40.00,10,5,15,0.00
2012-12-10,64.0,47.7,41.0,64.0,45.2,37.0,100,91,81,0.00,40.00,12,8,23,1.05
2012-12-11,46.0,39.2,34.0,37.0,33.6,29.0,93,81,55,0.00,40.00,8,4,14,0.00
2012-12-12,55.0,42.6,33.0,36.0,25.9,12.0,84,58,19,0.00,40.00,9,4,17,0.00
2012-12-13,63.0,44.2,32.0,40.0,30.5,26.0,99,64,28,0.00,40.00,8,4,12,0.00
2012-12-14,66.0,49.9,34.0,52.0,42.3,34.0,100,78,45,0.00,40.00,9,5,18,0.00
2012-12-15,72.0,61.7,54.0,62.0,57.1,48.0,99,86,66,0.00,40.00,10,8,19,0.00
2012-12-16,73.0,63.9,59.0,65.0,62.1,59.0,100,95,75,0.00,40.00,12,4,27,0.79
2012-12-17,70.0,59.5,45.0,64.0,56.2,44.0,100,90,58,0.00,40.00,5,1,13,0.75
2012-12-18,69.0,51.7,37.0,48.0,43.2,37.0,100,78,38,0.00,40.00,7,3,15,0.01
2012-12-19,76.0,60.8,44.0,65.0,54.0,44.0,100,82,41,0.00,40.00,13,7,23,0.05
2012-12-20,71.0,56.8,42.0,71.0,42.6,21.0,100,63,34,0.00,40.00,16,9,35,0.18
2012-12-21,55.0,42.0,31.0,29.0,17.4,10.0,89,41,18,0.00,40.00,11,6,20,0.11
2012-12-22,65.0,43.9,27.0,38.0,27.4,20.0,98,62,18,0.00,40.00,5,2,11,0.00
2012-12-23,61.0,52.4,42.0,58.0,46.9,27.0,95,82,51,0.00,40.00,9,5,18,0.00
2012-12-24,75.0,63.0,52.0,66.0,56.7,44.0,100,83,47,0.00,40.00,8,4,18,0.12
2012-12-25,72.0,58.5,46.0,67.0,54.7,35.0,100,88,66,0.00,40.00,13,7,33,1.81
2012-12-26,46.0,38.1,35.0,35.0,31.3,28.0,86,77,66,0.00,40.00,14,9,31,0.01
2012-12-27,52.0,40.5,32.0,37.0,32.1,29.0,91,74,46,0.00,40.00,8,3,12,0.00
2012-12-28,56.0,50.2,44.0,56.0,48.6,36.0,100,95,71,0.00,40.00,13,8,26,2.16
2012-12-29,48.0,40.5,33.0,43.0,30.2,24.0,98,69,41,0.00,40.00,13,7,25,0.02
2012-12-30,51.0,37.2,27.0,34.0,26.1,22.0,87,67,32,0.00,40.00,8,4,17,0.00
2012-12-31,61.0,50.3,37.0,55.0,41.3,28.0,91,71,60,0.00,40.00,12,7,20,0.00
2013-1-1,64.0,57.3,46.0,64.0,56.8,46.0,100,98,91,0.00,40.00,12,6,22,1.08